Date/Time (UTC),ProbHail,ProbWind,ProbTor,MESH,VIL Density,Flash Rate,Max Flash Density,LJA sigma-level,Max 0-2km AzShear,LLAZ 98th%,MLAZ 98th%,MUCAPE,MLCAPE,CAPE -10C to -30C,MLCIN,SRH 0-1km AGL,EBShear,MeanWind 0-1km AGL,Norm. Sat. Growth Rate,PWAT,WBZ,AvgBeamHgt,size
2019/05/20 18:46,4,1,2,0.00,0.40,0,0.00,0.0,3,2,3,4234,3720,1026,3,116,54.7,39.3,0,1.3,3291.84,1480.0,84
2019/05/20 18:48,5,20,6,0.25,0.80,0,0.00,0.0,8,5,6,4240,3720,1026,3,115,54.8,39.2,0,1.3,3291.84,1460.0,123
2019/05/20 18:50,13,32,6,0.45,1.40,0,0.00,0.0,8,5,5,4233,3723,1035,3,117,54.5,39.3,0,1.3,3291.84,1480.0,94
2019/05/20 18:52,13,32,6,0.45,1.40,0,0.02,0.0,8,5,5,4233,3723,1035,3,117,54.5,39.3,0,1.3,3291.84,1480.0,94
2019/05/20 18:54,17,21,3,0.47,1.40,1,0.03,0.0,4,4,5,4324,3798,1018,3,86,58.0,36.1,0,1.3,2987.0400000000004,1480.0,213
2019/05/20 18:56,17,6,2,0.47,1.50,1,0.05,0.0,4,3,5,4323,3800,1018,3,86,58.1,36.1,0,1.3,2987.0400000000004,1490.0,248
2019/05/20 18:58,17,6,2,0.47,1.50,1,0.05,0.0,6,3,5,4321,3808,1019,3,87,58.1,36.2,0,1.3,2987.0400000000004,1540.0,241
2019/05/20 19:00,13,6,3,0.41,1.50,2,0.06,0.0,8,3,5,4320,3812,1019,3,87,58.1,36.3,0,1.3,3017.5200000000004,1550.0,282
2019/05/20 19:02,27,36,4,0.48,1.50,5,0.10,0.0,8,5,7,4323,3820,1020,3,87,58.1,36.3,0,1.3,3048.0,1560.0,219
2019/05/20 19:04,34,55,4,0.55,1.80,14,0.18,10.0,8,5,6,4320,3827,1021,3,88,58.1,36.5,0,1.3,3078.48,1580.0,330
2019/05/20 19:06,34,63,15,0.55,1.80,14,0.18,0.0,11,7,7,4328,3824,1021,3,87,58.1,36.3,0,1.3,3048.0,1560.0,276
2019/05/20 19:08,32,63,16,0.55,1.80,14,0.18,0.7,11,7,8,4317,3836,1023,3,88,58.1,36.6,0,1.3,3139.4400000000005,1620.0,271
2019/05/20 19:10,25,63,18,0.49,1.70,14,0.18,0.0,11,7,7,4311,3851,1027,3,90,58.0,36.9,0,1.3,3200.4,1670.0,318
2019/05/20 19:12,51,67,8,0.73,1.80,16,0.18,1.5,8,6,7,4311,3852,1026,3,90,58.0,36.9,0,1.3,3230.88,1670.0,343
2019/05/20 19:14,60,62,13,0.81,1.80,16,0.18,0.0,12,6,7,4311,3852,1026,3,90,58.0,36.9,0,1.3,3230.88,1670.0,343
2019/05/20 19:16,60,74,14,0.81,2.20,16,0.26,0.0,7,6,7,4307,3858,1026,3,92,58.0,37.0,0,1.4,3261.36,1720.0,301
2019/05/20 19:18,63,74,14,0.81,2.20,18,0.26,1.2,7,6,6,4306,3865,1025,3,94,58.3,37.2,0,1.4,3261.36,1760.0,354
2019/05/20 19:20,72,77,12,0.94,2.30,18,0.26,0.0,7,6,7,4305,3869,1025,3,95,58.7,37.3,0,1.4,3291.84,1790.0,317
2019/05/20 19:22,72,77,9,0.94,2.60,18,0.26,0.0,6,5,7,4306,3873,1021,3,97,59.0,37.4,0,1.4,3291.84,1830.0,306
2019/05/20 19:24,86,88,4,1.22,3.00,18,0.26,1.4,6,5,7,4305,3877,1011,3,104,59.0,37.8,0,1.4,3322.32,1950.0,239
2019/05/20 19:26,90,87,11,1.37,3.00,19,0.32,0.8,9,5,9,4306,3877,1011,3,104,59.1,37.8,0,1.4,3322.32,1960.0,269
2019/05/20 19:28,90,87,13,1.37,3.00,20,0.32,0.2,9,6,9,4310,3884,1006,3,108,59.6,38.0,0,1.4,3322.32,2020.0,270
2019/05/20 19:30,90,85,16,1.37,2.90,20,0.32,0.0,9,6,9,4313,3889,1005,3,111,60.0,38.2,0,1.4,3352.8,2060.0,227
2019/05/20 19:32,87,91,27,1.23,2.60,21,0.42,2.1,11,6,8,4313,3891,1009,2,111,60.3,38.1,0,1.4,3352.8,2070.0,218
2019/05/20 19:34,78,91,27,1.04,2.60,21,0.42,0.0,11,6,8,4313,3891,1009,2,111,60.3,38.1,0,1.4,3352.8,2070.0,218
2019/05/20 19:36,78,91,20,1.04,2.60,21,0.42,0.0,11,6,8,4319,3899,1013,3,114,60.5,38.4,0,1.4,3352.8,2140.0,277
2019/05/20 19:38,87,91,20,1.22,2.80,21,0.42,0.3,11,6,8,4323,3905,1017,3,116,60.7,38.4,0,1.4,3352.8,2170.0,308
2019/05/20 19:40,87,91,20,1.22,2.80,21,0.42,0.0,11,6,7,4327,3909,1017,3,118,60.7,38.5,0,1.4,3352.8,2190.0,290
2019/05/20 19:42,83,81,17,1.22,2.80,12,0.42,0.0,6,5,6,4342,3929,1026,3,123,60.9,38.7,0,1.4,3383.28,2270.0,289
2019/05/20 19:44,78,82,7,1.13,2.80,12,0.42,0.0,6,5,6,4350,3942,1026,3,126,60.9,38.8,0,1.5,3383.28,2320.0,282
2019/05/20 19:46,93,89,12,1.46,2.90,22,0.44,3.1,9,5,8,4358,3950,1032,3,127,61.1,38.9,0,1.5,3383.28,2340.0,278
2019/05/20 19:48,95,92,46,1.46,2.90,31,0.59,1.2,11,8,10,4360,3953,1032,3,128,61.0,38.9,0,1.5,3383.28,2340.0,270
2019/05/20 19:50,95,92,46,1.46,2.90,31,0.59,0.0,11,8,9,4371,3966,1038,4,131,61.2,39.1,0,1.5,3383.28,2360.0,289
2019/05/20 19:52,94,92,54,1.33,2.60,31,0.59,0.0,11,8,6,5229,4329,1080,1,139,62.1,39.7,0,1.6,3108.96,2350.0,349
2019/05/20 19:54,94,95,47,1.33,3.00,31,0.59,0.4,11,7,7,5223,4322,1077,1,138,62.1,39.7,0,1.6,3108.96,2400.0,177
2019/05/20 19:56,92,87,31,1.54,3.20,16,0.59,0.0,13,6,7,5284,4331,1090,1,145,62.2,39.8,0,1.6,3108.96,2370.0,347
2019/05/20 19:58,92,87,31,1.54,3.20,16,0.59,0.1,13,6,7,5297,4334,1095,2,148,62.1,39.9,0,1.6,3108.96,2350.0,354
2019/05/20 20:00,93,89,28,1.54,3.30,16,0.59,0.0,13,6,7,5281,4327,1087,2,144,62.3,39.8,0,1.6,3108.96,2400.0,200
2019/05/20 20:02,92,89,31,1.50,3.30,13,0.59,0.0,13,6,7,5310,4338,1096,2,148,62.3,39.9,0,1.6,3108.96,2350.0,228
2019/05/20 20:04,92,87,14,1.50,3.30,13,0.59,0.0,7,5,8,5325,4345,1105,2,152,62.4,39.8,0,1.7,3108.96,2310.0,210
2019/05/20 20:06,90,87,14,1.30,3.00,19,0.59,3.7,7,5,7,5340,4356,1116,3,156,62.6,39.9,0,1.7,3108.96,2240.0,243
2019/05/20 20:08,90,91,16,1.25,3.00,19,0.59,0.1,7,6,7,5348,4368,1135,3,163,62.8,39.9,0,1.7,3139.4400000000005,2170.0,215
2019/05/20 20:10,83,85,13,1.06,2.60,19,0.59,0.0,7,6,6,5347,4371,1148,4,171,62.9,39.9,0,1.7,3139.4400000000005,2110.0,220
2019/05/20 20:12,76,81,16,0.92,2.60,19,0.59,0.0,7,6,6,5347,4372,1152,4,172,63.1,39.9,0,1.7,3139.4400000000005,2100.0,205
2019/05/20 20:14,73,78,10,0.92,2.60,19,0.59,0.1,8,5,5,5341,4373,1163,4,177,63.3,40.0,0,1.7,3169.92,2050.0,250
2019/05/20 20:16,69,78,11,0.92,2.60,15,0.59,0.6,8,5,4,5343,4374,1168,4,180,63.5,40.0,0,1.7,3200.4,2040.0,214
2019/05/20 20:18,58,65,15,0.78,2.60,15,0.59,0.0,10,5,6,5344,4373,1170,4,180,63.6,39.9,0,1.7,3230.88,2050.0,206
2019/05/20 20:20,89,91,13,1.17,2.90,25,0.37,4.3,9,5,7,5350,4375,1142,4,159,63.9,39.4,0,1.7,3261.36,2230.0,468
2019/05/20 20:22,95,87,14,1.56,3.50,25,0.37,0.1,9,5,7,5350,4378,1149,4,162,64.0,39.4,0,1.7,3291.84,2230.0,470
2019/05/20 20:24,95,92,12,1.56,3.50,27,0.37,0.3,9,5,7,5354,4385,1156,4,164,64.2,39.4,0,1.7,3291.84,2270.0,420
2019/05/20 20:26,97,89,14,1.69,3.50,41,0.48,2.5,10,5,6,5354,4385,1156,4,164,64.2,39.4,0,1.7,3291.84,2270.0,420
